STARLINK-31865, 59791

Orbit data source: Space-Track

STARLINK-31865, 59791 is a payload satellite owned by SpaceX/Seattle (US) in LEO that was launched on Sat, 18 May 2024 UTC via an FALCON 9 launch vehicle from the Air Force Eastern Test Range (AFETR). Payload-class satellites include a variety of spacecraft equipped with specific instruments for various scientific and technological missions. These include communications satellites like Starlink; space stations such as the ISS; scientific satellites like the Hubble; Earth observation satellites from companies like Planet Labs, Umbra, and HawkEye 360; GPS; miniature CubeSats for education and research; and military/defense satellites.

Loading next visibility...
Identifier
59791, 2024-093K
Orbit
LEO
Last TLE update
7 hours ago
Origin
Manufacturer
SpaceX/Seattle
Mission
Operational spacecraft
Bus & Motor
STARLINK V2M, Unknown motor
Mass
730 kg wet, ~700 kg dry
Launch date (UTC)
2024-05-18 (1 year ago)
Launch vehicle
FALCON 9
Launch site
Air Force Eastern Test Range (AFETR)
Object type
Payload
Rocket body
Debris
Shape & HBR
Unknown
Radar Cross Section
Large (>1 m²)

Expand to show TLE details & history

TLE from 7 hours ago
0 STARLINK-31865
1 59791U 24093K   25182.06368985  .00002107  00000-0  86053-4 0  9998
2 59791  43.0001 189.8470 0001206 271.6948  88.3765 15.27578920 64210
Epoch: 2025-07-01T01:31Z
TLE epoch observation values (Epoch: 2025-07-01T01:31:42.803Z)
Latitude
-0.00003°
Longitude
-112.4459°
Altitude
482.804 km
Speed
7.626 km/s
True Right ascension
12h 39m 23s
True Declination
0° 00' 00"
Sunlit
Object was in daylight at epoch
Visualization orbit readout
Latitude
-20.86736°
Longitude
89.84732°
Altitude
487.382 km
Speed
7.622 km/s
Apparent Right ascension
04h 42m 46s
Apparent Declination
-39° 38' 48"
Sunlit
Object is in daylight
Visualization observer readout
Local Sidereal Time
20:21:44
Azimuth
107.988° ESE
Elevation
-48.621°
Doppler factor
1
Orbital elements
Apogee altitude
485.825 km
Perigee altitude
484.17 km
Semi-major axis
6,863.134 km
Eccentricity
0.00012
Inclination
43.0001°
RAAN
189.847°
Arg. of periapsis
271.6948°
True anomaly
Unknown
Mean anomaly
88.3765°
Eccentric anomaly
Unknown
Mean motion
3.81733 °/min
Orbital period
94.31 mins
BSTAR
0.000086053
Loading maneuver chart data...
Loading SW <> Apogee altitude chart data...
Loading historical data...
Loading historical data...
Loading historical data...
Loading historical data...
Loading historical data...
Loading historical data...
Loading historical data...

STARLINK-31865 Visibility forecast

Observer location: undefined°, undefined°

Span
Click to sort rows by Start time (UTC) header in descending order
Start Az.
Max El. time (UTC)
Max El. Az.
Max El.
End time (UTC)
End Az.
6 mins2025-07-01 09:51:34.172Z273.613° WNW2025-07-01 09:54:34.172Z214.798° SW28.428°2025-07-01 09:57:34.172Z149.547° SSE
6 mins2025-07-02 04:27:34.172Z241.115° WSW2025-07-02 04:29:34.172Z204.12° SW43.128°2025-07-02 04:33:34.172Z73.544° E
6 mins2025-07-02 06:06:34.172Z284.797° WNW2025-07-02 06:08:34.172Z331.717° NNW37.43°2025-07-02 06:12:34.172Z74.045° E
6 mins2025-07-02 07:45:34.172Z291.917° WNW2025-07-02 07:48:34.172Z62.563° ENE41.587°2025-07-02 07:51:34.172Z98.437° ESE
|